Powrót do katalogu

STARLINK-5236

AktywnyŁącznośćVLEO
NORAD 55274·PAYLOAD·🇺🇸 United States

Wystrzelony Jan 19, 2023 z Vandenberg Space Force Base

Loading…

Następne Przeloty (najbliższe 24 godziny)

TLE

ŚwieżeSource: CelesTrak SupGP

Epoka: Sep 14, 2026, 20:52 UTC

1 55274C 23010F   26257.86993056  .00066230  00000+0  55510-2 0  2578
2 55274  69.9992 267.6258 0003696 265.1035  55.2454 14.98290870    15

Śledź STARLINK-5236 w czasie rzeczywistym z AllMySat

Download on the App Store